#timestamp,LO_Frequency,Hit 
1504796415.7,286047002.4,N
1504796435.6,286047000.6,N
1504796455.4,286046995.3,N
1504796475.2,286046996.8,N
1504796495.1,286046995.4,N
1504796496.0,286046995.4,N
1504796515.8,286046999.2,N
1504796535.6,286046997.3,N
1504796555.4,286046995.5,N
1504796575.3,286046999.0,N
1504796595.1,286046996.9,N
1504796615.8,286046998.1,N
1504796635.7,286046998.6,N
1504796655.5,286047002.5,N
1504796675.3,286047002.3,N
1504796695.2,286046996.8,N
1504796715.9,286046999.5,N
1504796735.7,286046996.4,N
1504796755.6,286046996.3,N
1504796775.4,286046990.5,P
1504796795.2,286046994.1,N
1504796815.1,286046996.0,N
1504796816.0,286046996.0,N
1504796835.8,286046997.0,N
1504796855.6,286046998.0,N
1504796875.5,286046993.8,N
1504796895.3,286046997.7,N
1504796915.1,286047000.6,N
1504796935.9,286046998.4,N
1504796955.7,286046999.1,N
1504796975.5,286046998.4,N
1504796995.3,286046998.3,N
1504797015.2,286046995.0,N
1504797035.0,286046994.0,N
1504797035.9,286046994.0,N
1504797055.7,286046996.4,N
1504797075.6,286046991.7,P
1504797095.4,286046996.3,N
1504797115.2,286046997.1,N
1504797135.1,286046997.9,N
1504797136.0,286046997.9,N
1504797155.8,286046998.4,N
1504797175.6,286046998.2,N
1504797195.5,286047001.5,N
1504797215.3,286047002.2,N
1504797235.1,286046997.5,N
1504797255.9,286047001.0,N
1504797275.7,286047000.0,N
1504797295.5,286046999.6,N
1504797315.4,286046999.5,N
1504797335.2,286046993.3,N
1504797355.0,286046996.0,N
1504797355.9,286046996.0,N
1504797375.8,286046993.8,N
1504797395.6,286046997.0,N
1504797415.4,286046996.8,N
1504797435.2,286046997.8,N
1504797455.1,286047001.1,N
1504797456.0,286047001.1,N
1504797475.8,286046996.7,N
1504797495.6,286046995.5,N
1504797515.5,286046997.9,N
1504797535.3,286046996.9,N
1504797555.1,286046995.6,N
1504797575.9,286047001.2,N
1504797595.7,286047002.7,N
1504797615.5,286047001.3,N
1504797635.4,286047004.4,N
1504797655.2,286047002.5,N
1504797675.0,286047001.0,N
1504797675.9,286047001.0,N
1504797695.8,286046996.6,N
1504797715.6,286046995.6,N
1504797735.4,286046995.5,N
1504797755.2,286046992.5,N
1504797775.1,286046994.0,N
1504797776.0,286046994.0,N
1504797795.8,286046994.0,N
1504797815.6,286046994.9,N
1504797835.5,286046997.8,N
1504797855.3,286046993.6,N
1504797875.1,286046992.3,N
1504797895.9,286046990.5,N
1504797915.7,286046992.7,N
1504797935.5,286046990.4,N
1504797955.4,286046991.0,N
1504797975.2,286046992.6,N
1504797995.0,286046993.9,N
1504797995.9,286046993.9,N
1504798015.8,286046994.4,N
1504798035.6,286046994.0,N
1504798055.4,286046994.7,N
1504798075.3,286046993.6,N
1504798095.1,286046994.4,N
1504798096.0,286046994.4,N
1504798115.8,286046992.2,N
1504798135.6,286046991.3,N
1504798155.5,286046994.5,N
1504798175.3,286046992.9,N
1504798195.1,286046993.2,N
1504798215.9,286046990.1,P
1504798235.7,286046998.0,N
1504798255.5,286046995.2,N
1504798275.4,286046994.9,N
1504798295.2,286046996.7,N
1504798315.0,286046999.1,N
1504798315.9,286046999.1,N
1504798335.8,286047000.7,N
1504798355.6,286046999.3,N
1504798375.4,286046995.2,N
1504798395.3,286046997.0,N
1504798415.1,286046997.3,N
1504798416.0,286046997.3,N
1504798435.8,286046999.3,N
1504798455.7,286046997.7,N
1504798475.5,286046998.1,N
1504798495.3,286046999.4,N
1504798515.2,286046998.3,N
1504798535.9,286046999.3,N
1504798555.7,286046998.3,N
1504798575.5,286046999.2,N
1504798595.4,286046997.5,N
1504798615.2,286046998.5,N
1504798635.0,286047001.2,N
1504798635.9,286047001.2,N
1504798655.8,286047002.5,N
1504798675.6,286046999.7,N
1504798695.4,286046998.2,N
1504798715.3,286046995.0,N
1504798735.1,286046999.4,N
1504798736.0,286046999.4,N
1504798755.8,286046999.6,N
1504798775.7,286046999.0,N
1504798795.5,286047001.2,N
1504798815.3,286046995.5,N
1504798835.2,286046999.1,N
1504798855.9,286047002.2,N
1504798875.7,286047002.6,N
1504798895.5,286047000.6,N
1504798915.4,286046999.2,N
1504798935.2,286046999.1,N
1504798955.0,286046997.3,N
1504798955.9,286046997.3,N
1504798975.8,286046998.8,N
1504798995.6,286047000.7,N
1504799015.4,286046996.9,N
1504799035.3,286046999.3,N
1504799055.1,286046999.1,N
1504799075.8,286046995.2,N
1504799095.7,286046995.1,N
1504799115.5,286046998.8,N
1504799135.3,286047002.5,N
1504799155.2,286047002.3,N
1504799175.9,286046999.3,N
1504799195.7,286047002.6,N
1504799215.6,286047005.4,N
1504799235.4,286047004.0,N
1504799255.2,286047004.4,N
1504799275.0,286047000.0,N
1504799275.9,286047000.0,N
1504799295.8,286046999.0,N
1504799315.6,286046999.5,N
1504799335.4,286046996.6,N
1504799355.3,286046999.1,N
1504799375.1,286046999.2,N
1504799395.8,286047000.9,N
1504799415.7,286046999.1,N
1504799435.5,286046999.3,N
1504799455.3,286046998.3,N
1504799475.2,286047001.8,N
1504799495.9,286047002.5,N
1504799515.7,286046999.7,N
1504799535.6,286047004.0,N
1504799555.4,286047002.4,N
1504799575.2,286047001.0,N
1504799595.0,286046998.7,N
1504799596.0,286046998.7,N
1504799615.8,286047000.6,N
1504799635.6,286046996.5,N
1504799655.4,286046998.2,N
1504799675.3,286046996.9,N
1504799695.1,286047001.2,N
1504799715.8,286046998.8,N
1504799735.7,286046995.4,N
1504799755.5,286046995.1,N
1504799775.3,286046996.7,N
1504799795.2,286046995.2,N
1504799815.9,286046995.6,N
1504799835.7,286047000.6,N
1504799855.6,286046996.6,N
1504799875.4,286046998.4,N
1504799895.2,286047001.5,N
1504799915.1,286046999.7,N
1504799916.0,286046999.7,N
1504799935.8,286046998.4,N
1504799955.6,286046998.7,N
1504799975.4,286046995.3,N
1504799995.3,286046991.8,P
